Regional Weather Roundup
Issued by NWS

Home | Current Version | Previous Version | Graphics & Text | Print | Product List | Glossary Off
Versions: 1 2 3 4 5 6 7 8 9 10 11 12 13 14 15 16 17 18 19 20 21 22 23 24 25 26 27 28 29 30 31 32 33 34 35 36 37 38 39 40 41 42 43 44 45 46 47 48 49 50

000
ASUS43 KDMX 220306
RWRIA

WEATHER ROUNDUP FOR IOWA
NATIONAL WEATHER SERVICE DES MOINES IA
1000 PM CDT FRI JUL 21 2017

NOTE: "FAIR" INDICATES FEW OR NO CLOUDS BELOW 12,000 FEET WITH NO
SIGNIFICANT WEATHER AND/OR OBSTRUCTIONS TO VISIBILITY.

* - THESE STATIONS ARE NOT NWS STATIONS...THUS NOT UNDER NWS
QUALITY CONTROL.  THEY ALSO DO NOT REPORT WEATHER SUCH
AS PRECIPITATION OR FOG.

IAZ001>003-012>014-020>022-031>034-043>046-220400-
   NORTHWEST IOWA

CITY           SKY/WX    TMP DP  RH WIND       PRES   REMARKS
CARROLL *      CLOUDY    79  79 100 N3        29.75R HX  83
CHEROKEE *     CLOUDY    77  76  97 E3        29.76R
DENISON *      CLOUDY    81  81 100 N9        29.76R HX  91
ORANGE CITY *  CLOUDY    79  75  89 E6        29.77S HX  82
SHELDON *      CLOUDY    75  73  94 NE5       29.77S
SIOUX CITY     CLOUDY    82  79  90 E8        29.71F HX  92
SPENCER        CLOUDY    75  73  93 NE5       29.79R
STORM LAKE *   CLOUDY    75  75 100 E6        29.77S FOG
$$

IAZ055>058-069>071-079>083-090>094-220400-
   SOUTHWEST IOWA

CITY           SKY/WX    TMP DP  RH WIND       PRES   REMARKS
ATLANTIC *     CLEAR     84  77  79 S9        29.73S HX  94
AUDUBON *      CLEAR     84  77  79 S5        29.75S HX  94
CLARINDA *       N/A     82  77  83 S8        29.77R HX  91
COUNCIL BLFS * CLEAR     90  72  55 SW8       29.73R HX  96
CRESTON *      CLEAR     84  75  74 S14       29.78S HX  92
HARLAN  *      CLOUDY    81  81 100 W3        29.77R HX  91
LAMONI         CLEAR     86  77  74 S13       29.80R HX  97
RED OAK *      CLEAR     86  75  70 S10       29.74R HX  95
SHENANDOAH *   CLEAR     86  73  66 S13G21    29.74R HX  93
$$

IAZ047>049-059>061-072>074-084-220400-
   CENTRAL IOWA

CITY           SKY/WX    TMP DP  RH WIND       PRES   REMARKS
AMES           CLEAR     78  78 100 E3        29.75R HX  81
ANKENY *       CLEAR     86  75  70 S7        29.74S HX  95
BOONE *        CLEAR     77  75  94 E5        29.75S
CHARITON *     CLEAR     86  75  70 S16       29.77S HX  95
DES MOINES     PTCLDY    88  74  63 S8        29.73R HX  96
GRINNELL*      PTCLDY    84  76  77 S8        29.78R HX  92
KNOXVILLE *    CLEAR     88  75  66 S12G18    29.75R HX  97
MARSHALLTOWN   MOCLDY    75  74  96 E6        29.77R
NEWTON *       PTCLDY    82  77  83 S8        29.76R HX  91
PELLA *        CLEAR     86  75  69 S7        29.77R HX  94
$$

IAZ004>006-015-016-023>025-035-036-220400-
   NORTH CENTRAL IOWA

CITY           SKY/WX    TMP DP  RH WIND       PRES   REMARKS
ALGONA *       CLOUDY    73  73 100 NE7       29.81R
CLARION *      MOCLDY    72  72 100 E8        29.79R
ESTHERVILLE    MOCLDY    73  73 100 E6        29.81R
FORT DODGE *   CLEAR     73  72  94 E8        29.78R
MASON CITY     MOCLDY    72  69  90 E7        29.83S
FOREST CITY *  CLOUDY    72  70  94 E7        29.82R
WEBSTER CITY * MOCLDY    75  73  94 E7        29.75S
IOWA FALLS *   CLOUDY    73  71  93 E6        29.79S
$$

IAZ007>011-017>019-026>030-037>042-050>054-066-220400-
   NORTHEAST IOWA

CITY           SKY/WX    TMP DP  RH WIND       PRES   REMARKS
CEDAR RAPIDS   CLEAR     74  73  97 E9        29.78R
CHARLES CITY * MOCLDY    72  72 100 NE6       29.81S
CLINTON *      LGT RAIN  73  71  93 SE16      29.83R
DECORAH *      FOG       70  70 100 VRB6      29.83R VSB 3/4
DUBUQUE        CLOUDY    72  69  90 SE9       29.80F
MONTICELLO *   CLOUDY    72  72 100 SE3       29.79F
OELWEIN *      LGT RAIN  72  72 100 SE9       29.78F
WATERLOO       CLOUDY    74  70  87 SE7       29.76F
$$

IAZ064-065-067-068-078-220400-
   EAST CENTRAL IOWA

CITY           SKY/WX    TMP DP  RH WIND       PRES   REMARKS
DAVENPORT      CLOUDY    77  72  84 N7G24     29.84R
IOWA CITY      PTCLDY    79  74  84 CALM      29.79R HX  82
MT. PLEASANT * PTCLDY    83  71  66 S9        29.80R HX  87
MUSCATINE *    CLOUDY    77  75  94 NE3       29.78R
QUAD CITIES    CLOUDY    77  73  87 NE6       29.80R
$$

IAZ062-063-075>077-085>089-095>099-220400-
   SOUTHEAST IOWA

CITY           SKY/WX    TMP DP  RH WIND       PRES   REMARKS
BURLINGTON     PTCLDY    84  75  74 SW8       29.80R HX  92
FAIRFIELD *    PTCLDY    86  73  66 S9        29.79R HX  93
FORT MADISON * CLEAR     86  73  66 S7        29.82R HX  93
KEOKUK *       CLEAR     86  73  66 S9        29.81R HX  93
OSKALOOSA *      N/A     86  75  71 SW9G17    29.78R HX  94
CENTERVILLE *    N/A     84  75  74 S13       29.82R HX  92
OTTUMWA        CLEAR     88  75  65 S13       29.78R HX  97
WASHINGTON *   CLEAR     84  77  79 SW9       29.79R HX  94
$$

ABBREVIATIONS USED IN REMARKS
   TC - TEMPERATURES IN CELSIUS
  WCI - WIND CHILL INDEX
   HX - HEAT INDEX
  VSB - VISIBILITY
$$





USA.gov is the U.S. government's official web portal to all federal, state and local government web resources and services.